Regional Weather Roundup
Issued by NWS

Home | Current Version | Previous Version | Graphics & Text | Print | Product List | Glossary On
Versions: 1 2 3 4 5 6 7 8 9 10 11 12 13 14 15 16 17 18 19 20 21 22 23 24 25 26 27 28 29 30 31 32 33 34 35 36 37 38 39 40 41 42 43 44 45 46 47 48 49 50
062
ASUS44 KJAN 220903
RWRMS

MISSISSIPPI HOURLY WEATHER ROUNDUP
NATIONAL WEATHER SERVICE JACKSON MS
400 AM CDT FRI AUG 22 2014

NOTE: "FAIR: INDICATES FEW OR NO CLOUDS BELOW 12,000 FEET WITH NO
SIGNIFICANT WEATHER AND/OR OBSTRUCTIONS TO VISIBILITY.

MSZ001>002-007>008-010>013-018>021-025>028-034>036-221000-
NORTHWEST MISSISSIPPI

CITY           SKY/WX    TMP DP  RH WIND       PRES   REMARKS
CLARKSDALE     FAIR      73  73 100 CALM      30.08S
CLEVELAND      FAIR      73  73  98 CALM      30.07R
GREENWOOD      CLEAR     73  71  93 CALM      30.08R
GREENVILLE     CLEAR     73  71  93 S5        30.07R
GRENADA        FAIR      72  70  94 S3        30.08S
OLIVE BRANCH   CLEAR     73  73 100 S8        30.07R
OXFORD         FAIR      73  70  88 SW3       30.10S
TUNICA         SUNNY     72  72 100 S6        30.07R
$$

MSZ003>006-009-014>017-022>024-029>033-037>039-221000-
NORTHEAST MISSISSIPPI

CITY           SKY/WX    TMP DP  RH WIND       PRES   REMARKS
BELMONT        FAIR      74  72  92 SW3       30.08S
COLUMBUS AFB   CLEAR     73  72  96 CALM      30.08S
CORINTH        FAIR      73  72  94 SW3       30.06S
GOLDN TRIANGLE CLEAR     75  68  78 SW3       30.09S
STARKVILLE     FAIR      70  68  94 CALM      30.09S
TUPELO         CLEAR     75  71  87 W3        30.07S
$$

MSZ040-058-221000-
CENTRAL MISSISSIPPI

CITY           SKY/WX    TMP DP  RH WIND       PRES   REMARKS
JACKSON INTL   CLEAR     73  71  93 CALM      30.09R
JACKSON HAWKNS CLEAR     75  71  87 CALM      30.09S
MERIDIAN KEY   CLEAR     72  70  93 SW5       30.10R
MERIDIAN NAS   CLEAR     73  71  93 W5        30.09R
RAYMOND        FAIR      73  68  83 CALM      30.09R HAZE
VICKSBURG      PTCLDY    73  71  93 S3        30.07S
$$

MSZ059>079-221000-
SOUTH MISSISSIPPI

CITY           SKY/WX    TMP DP  RH WIND       PRES   REMARKS
BROOKHAVEN     FOG       72  72 100 CALM      30.11R VSB 1/2
COLUMBIA       FOG       73  72  94 MISG      30.08S VSB 1
HATTIESBURG    FOG       75  73  93 W3        30.10R VSB 1/4
MCCOMB         CLEAR     73  72  96 CALM      30.10R
NATCHEZ        MOCLDY    75  72  88 S3        30.10R
PINE BELT      PTCLDY    73  70  88 NW3       30.11S
$$

MSZ080>082-221000-
COASTAL MISSISSIPPI

CITY           SKY/WX    TMP DP  RH WIND       PRES   REMARKS
BILOXI         PTCLDY    80  75  85 VRB2      30.07S
PASCAGOULA     CLEAR     76  74  93 CALM      30.07S
GULFPORT       PTCLDY    78  75  90 N3        30.07R
$$



USA.gov is the U.S. government's official web portal to all federal, state and local government web resources and services.